www.pogodaiklimat.ru

Погода и климат >> Архив погоды >> Индия >> Mangalore Airport


ПОГОДА в Mangalore Airport

  • Прогноз погоды в Mangalore Airport
  • Монитор погоды в Mangalore Airport
  • Климат города

АРХИВ ПОГОДЫ в Mangalore Airport

Время (UTC), дата Ветер
(напр.,м/с)
 
Видим.   Явления Облачность Т
(С)
Тd
(С)
f
(%)
Тe
(С)
Тes
(С)
Комфортность P
(гПа)
Po
(гПа)
Тmin
(С)
Tmax
(С)
R
(мм)
R24
(мм)
S
(см)
03 14.05 В 3 4000 м {дождь, морось} 9/3 450 м
[Sc Ac trans Ci fib]
+24.8 +22.1 85 +32 +34 очень
душно
1010.3 998.8 +23.0 +33.1 0.8
06 14.05 В 2 4000 м 8/3 450 м
[Sc Ac trans Ci fib]
+29.6 +23.8 71 +41 +50 опасность
перегрева
1009.8 998.4
09 14.05 З 2 4000 м 8/4 450 м
[Cu Sc Ac trans]
+32.6 +23.1 57 +43 +49 опасность
перегрева
1007.3 996.1
12 14.05 СЗ 5 4000 м 6/3 450 м
[Cb cap Ac trans Ci fib]
+30.8 +24.2 68 +43 +43 опасность
перегрева
1006.6 995.3 +33.1
15 14.05 С 2 4000 м гроза, ливневой дождь 9/4 360 м
[Cb cap Ac trans Ci fib]
+24.6 +22.2 87 +32 +32 очень
душно
1008.3 996.8 1
18 14.05 ЮВ 2 4000 м зарница {гроза, дождь} 9/4 360 м
[Cb cap Ac trans Ci fib]
+24.4 +22.3 88 +32 +32 очень
душно
1009.4 997.8 1
21 14.05 С 3 4000 м 9/4 450 м
[Cu Sc Ac trans Ci fib]
+25.6 +20.7 74 +32 +32 очень
душно
1007.6 996.1 1
00 15.05 З 2 4000 м 6/4 450 м
[Sc Ac trans Ci fib]
+24.2 +22.4 90 +32 +32 очень
душно
1007.2 995.7 1
03 15.05 В 3 4000 м 6/1 600 м
[Sc Ac trans Ci fib]
+28.0 +22.1 70 +36 +40 очень
душно
1008.7 997.2 +23.5 +33.1 1
06 15.05 СВ 2 4000 м 8/1 600 м
[Sc Ac trans Ci fib]
+32.0 +21.7 55 +41 +53 опасность
перегрева
1007.9 996.6
09 15.05 З 5 10 км 4/1 450 м
[Sc Ac trans]
+33.4 +21.3 49 +41 +48 опасность
перегрева
1004.8 993.6
12 15.05 СЗ 3 10 км 6/1 450 м
[Cb calv Ac trans Ci fib]
+30.4 +21.5 59 +38 +40 очень
душно
1004.2 992.9 +33.3
15 15.05 Ю 2 4000 м зарница 6/3 450 м
[Cb cap Ac trans Ci fib]
+28.4 +23.5 75 +39 +39 очень
душно
1007.1 995.7
18 15.05 В 2 4000 м зарница 8/4 450 м
[Cb cap Ac trans Ci fib]
+26.8 +22.7 78 +35 +35 очень
душно
1007.5 996.0
21 15.05 В 2 4000 м 6/4 450 м
[Cb cap Ac trans Ci fib]
+25.2 +21.3 79 +32 +32 очень
душно
1005.8 994.2
00 16.05 В 2 4000 м 5/3 450 м
[Sc Ac trans Ci fib]
+25.2 +21.3 79 +32 +32 очень
душно
1005.7 994.2
03 16.05 ЮВ 2 4000 м 4/1 450 м
[Sc Ci fib]
+28.2 +23.2 74 +38 +43 очень
душно
1007.9 996.5 +24.0 +33.3
06 16.05 Ю 3 10 км 6/5 450 м
[Cu Sc Ci fib]
+32.8 +23.3 57 +43 +52 опасность
перегрева
1008.2 997.0
09 16.05 З 5 10 км 8/6 450 м
[Cu Sc Ci fib]
+32.6 +24.0 61 +45 +48 опасность
перегрева
1006.0 994.8
12 16.05 штиль 0 4000 м 9/6 450 м
[Cb cap Ac trans Ci fib]
+26.8 +20.1 67 +33 +34 очень
душно
1005.2 993.7 +32.9
15 16.05 С 3 4000 м 9/5 450 м
[Cu Sc Ac trans Ci fib]
+26.2 +21.4 75 +33 +33 очень
душно
1007.0 995.5
18 16.05 В 2 4000 м 9/5 450 м
[Cu Sc Ac trans Ci fib]
+26.0 +22.1 79 +34 +34 очень
душно
1007.0 995.5
21 16.05 В 2 4000 м 9/4 450 м
[Cu Sc Ac trans Ci fib]
+25.6 +22.9 85 +34 +34 очень
душно
1004.9 993.4
00 17.05 В 2 4000 м 8/3 450 м
[Cu Sc Ac trans Ci fib]
+25.6 +23.9 90 +35 +35 очень
душно
1005.8 994.3
03 17.05 В 2 4000 м 4/1 450 м
[Sc Ac trans]
+28.2 +24.5 80 +40 +44 очень
душно
1007.8 996.4 +24.6 +32.9
06 17.05 З 3 4000 м 6/5 450 м
[Cu Sc Ci fib]
+32.0 +24.0 63 +44 +52 опасность
перегрева
1007.4 996.1
09 17.05 З 5 4000 м 6/4 450 м
[Cu Sc Ci fib]
+33.6 +25.5 63 +48 +53 опасность
перегрева
1005.6 994.4
12 17.05 З 4 4000 м гроза без осадков 8/4 450 м
[Cb cap Ac trans Ci ing]
+30.8 +25.7 74 +45 +45 опасность
перегрева
1004.9 993.6 +33.6
15 17.05 З 2 4000 м в посл. час морось {гроза} 8/4 360 м
[Cb cap Ac trans Ci ing]
+29.2 +24.9 78 +42 +42 опасность
перегрева
1007.3 996.1 0.0
18 17.05 0 мгла н/о +25.6 +14.3 50 +28 +28 жарко 1002.0 996.8
21 17.05 СЗ 3 4000 м гроза, ливневой дождь 10/6 120 м
[Cb cap Ac As]
+24.0 +23.4 96 +32 +32 очень
душно
1008.0 996.4 81
00 18.05 СВ 3 4000 м гроза, ливневой дождь 10/4 120 м
[Cb cap Ac As]
+23.2 +1.7 24 +22 +22 комфорт 1007.1 995.5 82
03 18.05 В 3 4000 м {гроза, дождь} 10/1 240 м
[Cb cap Ac As Cs]
+24.6 +23.1 91 +33 +35 очень
душно
1008.1 996.6 +22.2 +33.6 83
06 18.05 ЮВ 3 4000 м {гроза, дождь} 9/3 450 м
[Cu Sc Ac trans Ci fib]
+29.4 +23.0 68 +39 +46 очень
душно
1008.6 997.3
09 18.05 ЮЗ 3 4000 м 9/4 450 м
[Cu Sc Ac trans Ci sp]
+30.8 +24.8 70 +44 +49 опасность
перегрева
1006.3 995.0
12 18.05 З 4 4000 м 8/3 450 м
[Sc Ac trans Ci sp]
+30.6 +24.9 72 +44 +45 опасность
перегрева
1005.2 993.9 +31.5
15 18.05 ЮЗ 2 4000 м 5/3 450 м
[Sc Ci fib]
+28.6 +24.9 80 +41 +41 опасность
перегрева
1007.0 995.6
18 18.05 штиль 0 4000 м 5/3 450 м
[Sc Ci fib]
+28.0 +25.2 85 +41 +41 опасность
перегрева
1007.5 996.1
21 18.05 В 2 4000 м 4/3 450 м
[Sc Ci fib]
+27.0 +25.0 89 +39 +39 очень
душно
1006.1 994.6
00 19.05 штиль 0 4000 м 6/4 450 м
[Sc Ac trans]
+26.4 +25.0 92 +38 +38 очень
душно
1006.7 995.2
03 19.05 штиль 0 4000 м дымка 8/4 450 м
[Sc diur, vesp Ac trans Ci fib]
+28.6 +25.8 85 +43 +46 опасность
перегрева
1008.5 997.1 +25.8 +31.5
06 19.05 З 3 4000 м 6/4 450 м
[Cu Sc Ci fib]
+31.6 +23.9 64 +43 +54 опасность
перегрева
1007.7 996.4
09 19.05 З 3 4000 м 5/3 450 м
[Cu Sc Ci fib]
+32.6 +24.7 63 +46 +55 опасность
перегрева
1005.3 994.0
12 19.05 З 3 10 км 3/0
[Ci fib]
+31.0 +23.8 66 +43 +44 опасность
перегрева
1004.6 993.2 +32.9
15 19.05 С 2 4000 м 3/1 450 м
[Sc Ci fib]
+29.4 +24.2 74 +41 +41 опасность
перегрева
1006.5 995.1
18 19.05 штиль 0 4000 м 4/3 450 м
[Sc Ci fib]
+28.0 +24.9 83 +40 +40 очень
душно
1007.1 995.7
21 19.05 В 2 4000 м зарница 5/4 450 м
[Cb cap Ci fib]
+27.2 +24.3 84 +38 +38 очень
душно
1007.1 995.6
00 20.05 СЗ 2 4000 м гроза без осадков {дождь} 9/5 360 м
[Cb cap Ac trans Ci fib]
+23.0 +21.8 93 +31 +31 очень
душно
1007.3 995.7 27
03 20.05 С 4 4000 м слабая морось 10/3 450 м
[Cb cap As op]
+23.6 +21.5 88 +30 +31 очень
душно
1008.6 997.0 +22.0 +32.9 27
06 20.05 С 3 4000 м {морось} 9/3 450 м
[Sc Ac trans Ci fib]
+26.4 +24.1 87 +37 +44 очень
душно
1008.6 997.1 0.0
09 20.05 СЗ 2 4000 м 8/3 450 м
[Sc Ac trans Ci fib]
+29.4 +23.3 70 +40 +48 очень
душно
1006.3 994.9 0.0
12 20.05 З 2 4000 м 8/1 450 м
[Sc Ac trans Ci fib]
+29.0 +23.8 74 +40 +41 очень
душно
1005.8 994.4 +30.1 0.0
15 20.05 штиль 0 4000 м 5/1 450 м
[Sc Ac trans Ci fib]
+27.4 +23.6 80 +37 +37 очень
душно
1007.3 995.8 0.0
18 20.05 В 2 4000 м 5/1 450 м
[Sc Ac trans Ci fib]
+26.4 +23.8 86 +36 +36 очень
душно
1008.2 996.7 0.0
21 20.05 З 2 4000 м 5/3 450 м
[Sc Ac trans Ci fib]
+25.4 +23.7 90 +35 +35 очень
душно
1005.6 994.1 0.0
00 21.05 штиль 0 4000 м 6/3 450 м
[Sc Ac trans Ci fib]
+25.2 +23.4 90 +34 +34 очень
душно
1006.5 995.0 0.0

 

Местоположение метеостанции Mangalore Airport (Karnataka, Индия): широта 12.92 долгота 74.88 высота над уровнем моря 102 м.

В архиве по умолчанию представлена погода в Mangalore Airport за последнюю неделю. Архивные данные за месяц целиком и за предыдущие месяцы, начиная с января 2011 года, Вы можете получить, выбрав интересующий диапазон дат из раскрывающегося списка и нажав кнопку "Ввод!".


*Определитесь, кто Вы:
робот инопланетянин человек

Внимание! Время в таблицах - всемирное. Для получения местного времени необходимо прибавить поправку, которая в Mangalore Airport равна 5.5 ч.

Смотрите также архив погоды в соседних городах и на ближайших метеорологических станциях:

Погода в Mangalore (Karnataka, Индия) (6 км)
Погода в Agumbe Emo (Karnataka, Индия) (68 км)
Погода в Chickmagalur (Karnataka, Индия) (101 км)
Погода в Madikeri (Karnataka, Индия) (108 км)
Погода в Cannanore (Kerala, Индия) (131 км)
Погода в Shirali (Karnataka, Индия) (133 км)
Погода в Shimoga (Karnataka, Индия) (139 км)
Погода в Hassan (Karnataka, Индия) (157 км)
Погода в Honavar (Karnataka, Индия) (158 км)
Погода в Davangere (Karnataka, Индия) (209 км)

Пояснения к столбцам:

Ветер - указаны скорость ветра в м/с - средняя за 10 мин, порывы в срок и между сроками (в фигурных скобках) и направление, откуда дует ветер: С - северный, СВ - северо-восточный, В - восточный, ЮВ - юго-восточный, Ю - южный, ЮЗ - юго-западный, З - западный, СЗ - северо-западный.
Видимость - горизонтальная дальность видимости в метрах или километрах. При видимости от 1 до 10 км при отсутствии осадков обычно наблюдается дымка, при ухудшении видимости до 1 км и менее - туман. В сухую погоду видимость может ухудшаться дымом, пылью или мглою.
Явления - указаны атмосферные явления, наблюдавшиеся в срок или в последний час перед сроком; фигурными скобками обозначены явления, наблюдавшиеся между сроками (за 1-3 часа до срока); квадратными скобками обозначены град или гололедные отложения с указанием их диаметра в мм.
Облачность - указаны через наклонную черту общая и нижняя облачность в баллах и высота нижней границы облаков в метрах; квадратными скобками обозначены формы облаков: Ci - перистые, Cs - перисто-слоистые, Cc - перисто-кучевые, Ac - высококучевые, As - высокослоистые, Sc - слоисто-кучевые, Ns - слоисто-дождевые, Cu - кучевые, Cb - кучево-дождевые. Подробнее классификацию облаков см. в Атласе облаков (PDF).
T - Температура воздуха - температура, измеренная на высоте 2 м над землей.
Td - Температура точки росы - температура, при понижении до которой содержащийся в воздухе водяной пар достигнет насыщения.
f - Относительная влажность воздуха - влажноcть воздуха, измеренная на высоте 2 м над землей.
Te - Эффективная температура - температура, которую ощущает одетый по сезону человек в тени. Характеристика душности погоды. При расчете учитывается влияние влажности воздуха и скорости ветра на теплоощущения человека.
Tes - Эффективная температура на солнце - температура, которую ощущает человек, с поправкой на солнечный нагрев. Характеристика знойности погоды. Зависит от высоты солнца над горизонтом, облачности и скорости ветра. Ночью, в пасмурную погоду, а также при ветре 12 м/с и более поправка равна нулю.
P - Атмосферное давление - приведенное к уровню моря атмосферное давление.
Po - Атмосферное давление - измеренное на уровне метеостанции атмосферное давление.
Tmin - Минимальная температура - минимум температуры воздуха на высоте 2 м над землей.
Tmax - Максимальная температура - максимум температуры воздуха на высоте 2 м над землей.
R - Количество осадков - Количество выпавших осадков за период времени, мм. При наведении курсора мыши на число - период времени, за который выпало указанное количество осадков.
R24 - Количество осадков - Количество выпавших осадков за 24 часа, мм.
S - Снежный покров - Высота снежного покрова, см. При наведении курсора мыши на число - состояние снежного покрова и степень покрытия местности в баллах.